Dati Storici

Data ora Umidita' aria (%) Temperatura aria (°C) Rad globale (W/m²) Gonioanemometro (°) Tacoanemometro (m/s) Pioggia (mm)
07-06-2020 00:10 93.8 % 19.067 -66.031 0.515 0 0
07-06-2020 00:00 93.9 % 19.223 -78.188 0.279 0 0
06-06-2020 23:50 93.9 % 19.317 -77.406 0.748 0 0
06-06-2020 23:40 93.9 % 19.188 -68.325 0.426 0 0
06-06-2020 23:30 93.8 % 19.21 -57.32 0.628 0 0
06-06-2020 23:20 94.7 % 19.169 -73.506 0.727 0 0
06-06-2020 23:10 94.1 % 19.152 -71.409 0.502 0 0
06-06-2020 23:00 93 % 19.291 -71.789 0.81 0 0
06-06-2020 22:50 91.9 % 19.53 -51.005 0.417 0 0
06-06-2020 22:40 90.5 % 19.639 -58.921 0.86 0 0
06-06-2020 22:30 87.6 % 19.73 -50.521 -0.012 0 0
06-06-2020 22:20 86.7 % 19.976 -48.504 0.404 0 0
06-06-2020 22:10 86.1 % 20.063 -65.346 0.877 0 0
06-06-2020 22:00 84.2 % 20.131 -64.034 0.426 0 0
06-06-2020 21:50 83.9 % 20.298 -59.583 0.483 0 0
06-06-2020 21:40 83.7 % 20.383 -67.149 0.281 0 0
06-06-2020 21:30 83.6 % 20.423 -70.384 0.454 0 0
06-06-2020 21:20 83.5 % 20.455 -75.308 1.169 0 0
06-06-2020 21:10 83.4 % 20.52 -68.943 0.633 0 0
06-06-2020 21:00 83.7 % 20.652 -66.082 0.303 0 0

I dati sono presentati in modo automatico a scopo informativo. In seguito a verifica i dati possono subire modifiche o essere invalidati e non riportati negli archivi definitivi.